Location: Central Falls
(41.8900°N, 71.3929°W)
Time: 03:30:43
(UTC+00:00)

Tiros 1 - Pass Details

Date: 12 December 2023
Orbit: 625 x 658 km, 48.4° (Epoch: 01 March)

Event Time Altitude Azimuth Distance (km) Brightness Sun altitude
Rises 10:35:55 0° 295° (WNW) 2,986 - -15.7°
Reaches altitude 10° 10:38:19 10° 301° (WNW) 2,074 - -15.3°
Exits shadow 10:40:09 22° 310° (NW) 1,421 8.4 -15.0°
Maximum altitude 10:43:00 52° 18° (NNE) 822 7.6 -14.5°
Drops below altitude 10° 10:47:40 10° 95° (E) 2,068 11.1 -13.7°
Sets 10:50:04 0° 100° (E) 2,976 12.4 -13.2°
